DW4691 Weather Reports


Display with metric or nautical units.
time (UTC)temp
F
wind
direction
speed
MPH
gust
MPH
rain 1hr
in
rain 24hr
in
rain mn
in
humidity
%
barometer
mb
20260506233052 81 0 0.0 0.0 0.00 0.07 0.07 81 1008.7
20260506231548 83 0 0.0 0.0 0.00 0.07 0.07 87 1008.3
20260506230052 82 0 0.0 0.0 0.00 0.07 0.07 88 1008.3
20260506224546 82 0 0.0 0.0 0.00 0.07 0.07 88 1008.4
20260506223041 83 0 0.0 0.0 0.00 0.07 0.07 86 1008.2
20260506221544 84 0 0.0 0.0 0.00 0.07 0.07 85 1008.0
20260506220057 85 0 0.0 0.0 0.00 0.07 0.07 85 1008.2
20260506214550 85 0 0.0 0.0 0.00 0.07 0.07 83 1008.1
20260506213047 85 0 0.0 0.0 0.00 0.07 0.07 81 1008.1
20260506211547 85 0 0.0 0.0 0.00 0.07 0.07 83 1008.3
20260506210100 85 0 0.0 0.0 0.00 0.07 0.07 80 1008.3
20260506204552 84 0 0.0 0.0 0.00 0.07 0.07 81 1008.4
20260506203138 83 0 0.0 0.0 0.00 0.07 0.07 86 1008.6
20260506201546 83 0 0.0 0.0 0.00 0.07 0.07 83 1008.7
20260506200051 83 0 0.0 0.0 0.00 0.07 0.07 88 1008.8
20260506194610 82 0 0.0 0.0 0.00 0.07 0.07 89 1008.9
20260506193043 81 0 0.0 0.0 0.00 0.07 0.07 89 1009.0
20260506191545 81 0 0.0 0.0 0.00 0.07 0.07 89 1009.2
20260506190049 81 0 0.0 0.0 0.02 0.07 0.07 89 1009.3
20260506184552 80 0 0.0 0.0 0.04 0.07 0.07 89 1009.3
20260506183047 79 0 0.0 0.0 0.07 0.07 0.07 91 1009.6
20260506181542 79 0 0.0 0.0 0.07 0.07 0.07 89 1009.8
20260506180046 80 0 0.0 0.0 0.05 0.05 0.05 89 1010.3
20260506174546 81 0 0.0 0.0 0.02 0.02 0.02 87 1010.6
20260506173055 81 0 0.0 0.0 0.00 0.00 0.00 85 1010.8
20260506171547 82 0 0.0 0.0 0.00 0.00 0.00 82 1011.0
20260506170103 82 0 0.0 0.0 0.00 0.00 0.00 84 1011.0
20260506164557 82 0 0.0 0.0 0.00 0.00 0.00 84 1011.1
20260506163136 81 0 0.0 0.0 0.00 0.00 0.00 85 1010.8
20260506161550 80 0 0.0 0.0 0.00 0.00 0.00 85 1010.6
20260506160053 80 0 0.0 0.0 0.00 0.00 0.00 86 1010.5
20260506154555 80 0 0.0 0.0 0.00 0.00 0.00 86 1010.3
20260506153050 80 0 0.0 0.0 0.00 0.00 0.00 85 1010.2
20260506151543 80 0 0.0 0.0 0.00 0.00 0.00 85 1010.4
20260506150051 80 0 0.0 0.0 0.00 0.00 0.00 87 1009.9
20260506144545 79 0 0.0 0.0 0.00 0.00 0.00 87 1010.0
20260506143042 79 0 0.0 0.0 0.00 0.00 0.00 88 1009.7
20260506141549 78 0 0.0 0.0 0.00 0.00 0.00 88 1009.6
20260506140047 78 0 0.0 0.0 0.00 0.00 0.00 89 1009.7
20260506134545 77 0 0.0 0.0 0.00 0.00 0.00 89 1009.7
20260506133047 77 0 0.0 0.0 0.00 0.00 0.00 90 1010.0
20260506131550 76 0 0.0 0.0 0.00 0.00 0.00 90 1009.9
20260506130050 76 0 0.0 0.0 0.00 0.00 0.00 91 1010.0
20260506124555 76 0 0.0 0.0 0.00 0.00 0.00 91 1009.8
20260506123050 75 0 0.0 0.0 0.00 0.00 0.00 91 1009.6
20260506121554 75 0 0.0 0.0 0.00 0.00 0.00 91 1009.6
20260506120051 75 0 0.0 0.0 0.00 0.00 0.00 91 1009.5
20260506114551 75 0 0.0 0.0 0.00 0.00 0.00 91 1009.2
20260506113042 75 0 0.0 0.0 0.00 0.00 0.00 90 1009.3
20260506111542 75 0 0.0 0.0 0.00 0.00 0.00 90 1009.1
20260506110047 75 0 0.0 0.0 0.00 0.00 0.00 90 1008.6
20260506104547 75 0 0.0 2.0 0.00 0.00 0.00 90 1008.3
20260506103044 76 0 0.0 3.0 0.00 0.00 0.00 89 1008.2
20260506101549 76 0 0.0 2.0 0.00 0.00 0.00 89 1008.3
20260506100041 76 0 0.0 3.0 0.00 0.00 0.00 89 1008.2
20260506094542 76 0 0.0 4.0 0.00 0.00 0.00 89 1008.1
20260506093046 76 0 0.0 3.0 0.00 0.00 0.00 89 1008.0
20260506091544 76 0 0.0 3.0 0.00 0.00 0.00 89 1007.9
20260506090056 76 0 0.0 2.0 0.00 0.00 0.00 89 1007.7
20260506084551 76 0 0.0 6.0 0.00 0.00 0.00 89 1007.8
20260506083043 77 0 0.0 2.0 0.00 0.00 0.00 89 1008.0
20260506081543 77 0 0.0 4.0 0.00 0.00 0.00 88 1008.0
20260506073045 77 0 0.0 0.0 0.00 0.00 0.00 88 1008.7
20260506071544 77 0 0.0 0.0 0.00 0.00 0.00 88 1009.0
20260506061553 77 100 0.0 0.0 0.00 0.00 0.00 87 1009.2
20260506050104 78 0 0.0 1.0 0.00 0.00 0.00 86 1009.1
20260506044546 78 0 0.0 4.0 0.00 0.00 0.00 85 1009.1
20260506043044 78 0 0.0 4.0 0.00 0.00 0.00 85 1009.0
20260506041557 78 0 0.0 1.0 0.00 0.00 0.00 85 1009.2
20260506040052 78 0 0.0 4.0 0.00 0.00 0.00 85 1008.9
20260506034552 78 0 0.0 3.0 0.00 0.00 0.00 85 1008.7
20260506033043 79 0 0.0 6.0 0.00 0.00 0.00 84 1008.5
20260506031548 79 0 0.0 6.0 0.00 0.00 0.00 84 1008.4
20260506030043 79 0 0.0 4.0 0.00 0.00 0.00 83 1008.2
20260506024540 79 0 0.0 2.0 0.00 0.00 0.00 83 1008.0
20260506023102 79 0 0.0 7.0 0.00 0.00 0.00 82 1007.7
20260506021552 79 0 0.0 5.0 0.00 0.00 0.00 82 1007.6
20260506020055 79 0 0.0 1.0 0.00 0.00 0.00 81 1007.4
20260506014544 79 0 0.0 2.0 0.00 0.00 0.00 81 1007.3
20260506013052 80 0 0.0 0.0 0.00 0.00 0.00 81 1007.1
20260506011547 80 0 0.0 4.0 0.00 0.00 0.00 80 1007.0
20260506010124 80 0 0.0 4.0 0.00 0.00 0.00 79 1006.7
20260506004546 81 0 0.0 3.0 0.00 0.00 0.00 79 1006.6
20260506003054 81 0 0.0 4.0 0.00 0.00 0.00 78 1006.6
20260506001553 81 0 0.0 6.0 0.00 0.00 0.00 78 1006.7
20260506000044 81 0 0.0 3.0 0.00 0.00 0.00 77 1006.5
20260505234543 82 0 0.0 4.0 0.00 0.00 0.00 77 1006.6